This demonstration page uses our WeatherBlox Daily Observations layout. Learn more.

Left ArrowRight Arrow

38.20091, -84.87328

Hourly Observations for February 25, 2020

Temp ( °F °C ) Dew Point ( °F °C ) Humidity (%) Winds ( mph kmh ) Pressure ( in mb ) Visibility ( mi km ) Precip ( " mm )
12:43 am 00:43 Cloudy 47 8.3 45 7.2 93 93 SE 6 9 29.68 1005 10 16 0.00 0.00
12:53 am 00:53 Cloudy 48 8.9 45 7.2 89 89 SE 6 9 29.66 1005 10 16 0.00 0.00
1:10 am 01:10 Cloudy 48 8.9 45 7.2 89 89 SE 3 6 29.67 1005 10 16 0.00 0.00
1:38 am 01:38 Cloudy with Rain 48 8.9 45 7.2 89 89 ESE 5 7 29.66 1005 3 5 0.05 1.27
1:51 am 01:51 Cloudy with Heavy Rain 48 9 46 8 94 94 Calm 29.67 1005 2 3 0.13 3.30
1:53 am 01:53 Cloudy with Heavy Rain 48 8.9 46 7.8 93 93 Calm 29.65 1004 2 3 0.14 3.56
2:04 am 02:04 Cloudy with Rain 48 8.9 46 7.8 93 93 Calm 29.66 1005 3 4 0.05 1.27
2:19 am 02:19 Cloudy with Rain 49 9.4 46 7.8 90 90 E 5 7 29.66 1004 4 6 0.10 2.54
2:53 am 02:53 Cloudy with Light Rain 48 8.9 46 7.8 93 93 Calm 29.64 1004 5 8 0.19 4.83
3:53 am 03:53 Cloudy 49 9.4 46 7.8 90 90 E 3 6 29.62 1003 7 11 0.02 0.51
4:53 am 04:53 Cloudy 48 8.9 46 7.8 93 93 SSE 3 6 29.62 1003 7 11 0.02 0.51
5:53 am 05:53 Cloudy 49 9.4 47 8.3 93 93 SSE 5 7 29.63 1003 10 16 0.00 0.00
6:53 am 06:53 Cloudy 50 10 48 8.9 93 93 S 5 7 29.64 1004 10 16 0.00 0.00
7:53 am 07:53 Cloudy 52 11.1 49 9.4 89 89 SSW 8 13 29.66 1004 10 16 0.01 0.25
8:04 am 08:04 Cloudy 52 11.1 49 9.4 89 89 SW 7 11 29.67 1005 10 16 0.00 0.00
8:12 am 08:12 Cloudy 52 11.1 49 9.4 89 89 SSW 7 11 29.67 1005 10 16 0.00 0.00
8:43 am 08:43 Cloudy 53 11.7 49 9.4 86 86 SSW 8 13 29.68 1005 10 16 0.00 0.00
8:53 am 08:53 Cloudy 53 11.7 50 10 89 89 SSW 8 13 29.68 1005 10 16 0.00 0.00
9:26 am 09:26 Cloudy 53 11.7 49 9.4 86 86 SSW 10 17 29.69 1006 10 16 0.00 0.00
9:53 am 09:53 Cloudy 53 11.7 49 9.4 86 86 SW 14 22 29.70 1006 10 16 0.00 0.00
10:53 am 10:53 Cloudy 53 11.7 49 9.4 86 86 SSW 9 15 29.71 1006 10 16 0.00 0.00
11:53 am 11:53 Cloudy 54 12.2 48 8.9 80 80 SSW 14 22 29.73 1007 10 16 0.00 0.00
12:08 pm 12:08 Cloudy 54 12.2 48 8.9 80 80 SSW 14 22 29.73 1007 10 16 0.00 0.00
12:44 pm 12:44 Cloudy 53 11.7 47 8.3 80 80 SW 13 20 29.74 1007 10 16 0.00 0.00
12:53 pm 12:53 Cloudy 52 11.1 47 8.3 83 83 SW 14 22 29.73 1007 10 16 0.00 0.00
1:53 pm 13:53 Cloudy 53 11.7 48 8.9 83 83 SW 13 20 29.73 1007 10 16 0.00 0.00
2:53 pm 14:53 Cloudy 53 11.7 48 8.9 83 83 SW 15 24 29.74 1007 9 14 0.00 0.00
3:10 pm 15:10 Cloudy with Light Rain 52 11.1 48 8.9 86 86 SW 9 15 29.76 1008 2 3 0.00 0.00
3:18 pm 15:18 Cloudy with Light Rain 52 11.1 49 9.4 89 89 SW 13 20 29.76 1008 2 2 0.00 0.00
3:23 pm 15:23 Cloudy with Light Rain 52 11.1 49 9.4 89 89 SW 10 17 29.76 1008 3 5 0.00 0.00
3:53 pm 15:53 Cloudy 52 11.1 49 9.4 89 89 WSW 9 15 29.76 1008 9 14 0.00 0.00
4:20 pm 16:20 Cloudy 52 11.1 47 8.3 83 83 WSW 9 15 29.79 1009 10 16 0.00 0.00
4:53 pm 16:53 Cloudy 52 11.1 47 8.3 83 83 WSW 6 9 29.78 1008 10 16 0.00 0.00
5:38 pm 17:38 Cloudy 51 10.6 47 8.3 86 86 WSW 6 9 29.80 1009 10 16 0.00 0.00
5:53 pm 17:53 Cloudy 51 10.6 47 8.3 86 86 SW 6 9 29.80 1009 10 16 0.00 0.00
6:28 pm 18:28 Cloudy 50 10 47 8.3 89 89 WSW 3 6 29.83 1010 10 16 0.00 0.00
6:35 pm 18:35 Cloudy 51 10.6 47 8.3 86 86 Calm 29.83 1010 10 16 0.00 0.00
6:53 pm 18:53 Cloudy 51 10.6 47 8.3 86 86 VRB 5 7 29.83 1010 10 16 0.00 0.00
7:53 pm 19:53 Cloudy 50 10 45 7.2 83 83 WSW 6 9 29.85 1011 10 16 0.00 0.00
8:03 pm 20:03 Cloudy 50 10 45 7.2 83 83 WSW 3 6 29.86 1011 10 16 0.00 0.00
8:45 pm 20:45 Cloudy 50 10 45 7.2 83 83 W 5 7 29.86 1011 10 16 0.00 0.00
8:53 pm 20:53 Cloudy 50 10 45 7.2 83 83 W 5 7 29.85 1011 10 16 0.00 0.00
9:53 pm 21:53 Cloudy 49 9.4 44 6.7 83 83 W 5 7 29.86 1011 10 16 0.00 0.00
10:12 pm 22:12 Cloudy 49 9.4 44 6.7 83 83 W 7 11 29.88 1012 10 16 0.00 0.00
10:34 pm 22:34 Cloudy 48 8.9 44 6.7 86 86 W 6 9 29.88 1012 10 16 0.00 0.00
10:50 pm 22:50 Cloudy 48 9 45 7 87 87 W 7 11 29.88 1012 10 16 0.00 0.00
10:53 pm 22:53 Cloudy 48 8.9 44 6.7 86 86 W 5 7 29.87 1012 10 16 0.00 0.00
11:53 pm 23:53 Cloudy 47 8.3 43 6.1 86 86 WSW 3 6 29.85 1011 9 14 0.00 0.00

Powered by AerisWeather